Location: Kawakawa
(35.3830°S, 174.0670°E)
Time: 03:07:41
(UTC+12:00)

Cosmos 2369 Rocket - Pass Details

Date: 15 August 2020
Orbit: 828 x 853 km, 71.0° (Epoch: 20 September)

Event Time Altitude Azimuth Distance (km) Brightness Sun altitude
Rises 18:48:11 0° 343° (NNW) 3,408 5.7 -12.0°
Reaches altitude 10° 18:50:37 10° 344° (NNW) 2,481 5.0 -12.5°
Maximum altitude 18:56:19 82° 70° (ENE) 874 2.2 -13.6°
Drops below altitude 10° 19:02:06 10° 157° (SSE) 2,508 4.4 -14.8°
Sets 19:04:35 0° 157° (SSE) 3,448 5.1 -15.3°
